Location: Observatoire
(46.1952°N, 5.3391°E)
Time: 06:17:22
(UTC+01:00)

Explorer 7 - Pass Details

Date: 20 February 2026
Orbit: 430 x 542 km, 50.2° (Epoch: 5 March)

Event Time Altitude Azimuth Distance (km) Brightness Sun altitude
Rises 16:36:58 0° 267° (W) 2,436 11.2 14.1°
Reaches altitude 10° 16:39:06 10° 273° (W) 1,581 10.2 13.8°
Maximum altitude 16:42:34 49° 349° (N) 604 7.1 13.3°
Drops below altitude 10° 16:46:11 10° 66° (ENE) 1,645 8.7 12.8°
Sets 16:48:27 0° 72° (ENE) 2,547 9.6 12.4°
